,,Stat6,,Stat2,,Stat8,,Stat9,,Stat10,,Wind1,,Wind1,
time,status,PA1M_AVG,status,PR1M_SUM,status,RH1M_AVG,status,SR1M_AVG,status,TA1M_AVG,status,W1dAve1m,status,W1sAve1m,
2005-12-21, 00:00:00,VALID,917.143,VALID,0,VALID,97.2116,VALID,0,VALID,20.342,VALID,339,VALID,0,
2005-12-21, 00:01:00,VALID,917.138,VALID,0,VALID,96.956,VALID,0,VALID,20.2903,VALID,339,VALID,0,
2005-12-21, 00:02:00,VALID,917.142,VALID,0,VALID,97.0819,VALID,0,VALID,20.2512,VALID,339,VALID,0,
2005-12-21, 00:03:00,VALID,917.16,VALID,0,VALID,97.5575,VALID,0,VALID,20.2674,VALID,339,VALID,0,
2005-12-21, 00:04:00,VALID,917.189,VALID,0,VALID,97.7953,VALID,0.0169808,VALID,20.2808,VALID,339,VALID,0,
2005-12-21, 00:05:00,VALID,917.186,VALID,0,VALID,97.9136,VALID,0,VALID,20.287,VALID,339,VALID,0,
2005-12-21, 00:06:00,VALID,917.189,VALID,0,VALID,97.8652,VALID,0,VALID,20.3069,VALID,339,VALID,0,
2005-12-21, 00:07:00,VALID,917.191,VALID,0,VALID,97.9428,VALID,0,VALID,20.2903,VALID,339,VALID,0,
2005-12-21, 00:08:00,VALID,917.192,VALID,0,VALID,98.0801,VALID,-0.0169808,VALID,20.2903,VALID,339,VALID,0,
2005-12-21, 00:09:00,VALID,917.205,VALID,0,VALID,98.1857,VALID,-0.0169808,VALID,20.2741,VALID,339,VALID,0,
2005-12-21, 00:10:00,VALID,917.189,VALID,0,VALID,98.1577,VALID,0,VALID,20.2709,VALID,339,VALID,0,
2005-12-21, 00:11:00,VALID,917.181,VALID,0,VALID,98.1793,VALID,-0.0169808,VALID,20.2778,VALID,339,VALID,0,
2005-12-21, 00:12:00,VALID,917.168,VALID,0,VALID,98.2225,VALID,0,VALID,20.2614,VALID,339,VALID,0,
2005-12-21, 00:13:00,VALID,917.158,VALID,0,VALID,98.2734,VALID,0,VALID,20.2378,VALID,339,VALID,0,
2005-12-21, 00:14:00,VALID,917.115,VALID,0,VALID,98.2137,VALID,0,VALID,20.2288,VALID,339,VALID,0,
2005-12-21, 00:15:00,VALID,917.081,VALID,0,VALID,97.9492,VALID,0,VALID,20.2194,VALID,339,VALID,0,
2005-12-21, 00:16:00,VALID,917.06,VALID,0,VALID,97.7279,VALID,0.0169808,VALID,20.1736,VALID,339,VALID,0,
2005-12-21, 00:17:00,VALID,917.057,VALID,0,VALID,97.883,VALID,0,VALID,20.1801,VALID,339,VALID,0,
2005-12-21, 00:18:00,VALID,917.064,VALID,0,VALID,97.9606,VALID,0.0169808,VALID,20.1836,VALID,339,VALID,0,
2005-12-21, 00:19:00,VALID,917.074,VALID,0,VALID,97.9555,VALID,0.0169808,VALID,20.1836,VALID,339,VALID,0,
2005-12-21, 00:20:00,VALID,917.099,VALID,0,VALID,97.8983,VALID,0,VALID,20.1908,VALID,339,VALID,0,
2005-12-21, 00:21:00,VALID,917.101,VALID,0,VALID,97.8131,VALID,0,VALID,20.161,VALID,339,VALID,0,
2005-12-21, 00:22:00,VALID,917.112,VALID,0,VALID,97.761,VALID,0,VALID,20.1644,VALID,339,VALID,0,
2005-12-21, 00:23:00,VALID,917.101,VALID,0,VALID,97.5931,VALID,0,VALID,20.1647,VALID,339,VALID,0,
2005-12-21, 00:24:00,VALID,917.087,VALID,0,VALID,97.4329,VALID,0,VALID,20.1677,VALID,339,VALID,0,
2005-12-21, 00:25:00,VALID,917.048,VALID,0,VALID,97.5956,VALID,0,VALID,20.1744,VALID,339,VALID,0,
2005-12-21, 00:26:00,VALID,917.036,VALID,0,VALID,97.8106,VALID,0,VALID,20.2097,VALID,336,VALID,0,
2005-12-21, 00:27:00,VALID,917.015,VALID,0,VALID,98.0839,VALID,0,VALID,20.2283,VALID,317,VALID,0,
2005-12-21, 00:28:00,VALID,917,VALID,0,VALID,98.2149,VALID,-0.0169808,VALID,20.2614,VALID,317,VALID,0,
2005-12-21, 00:29:00,VALID,916.999,VALID,0,VALID,98.3294,VALID,0,VALID,20.2582,VALID,317,VALID,0,
2005-12-21, 00:30:00,VALID,916.987,VALID,0,VALID,98.2658,VALID,0,VALID,20.2617,VALID,317,VALID,0,
2005-12-21, 00:31:00,VALID,916.969,VALID,0,VALID,98.543,VALID,0.0169808,VALID,20.2614,VALID,317,VALID,0,
2005-12-21, 00:32:00,VALID,916.95,VALID,0,VALID,98.707,VALID,-0.0169808,VALID,20.2517,VALID,317,VALID,0,
2005-12-21, 00:33:00,VALID,916.942,VALID,0,VALID,98.8444,VALID,0,VALID,20.2385,VALID,317,VALID,0,
2005-12-21, 00:34:00,VALID,916.95,VALID,0,VALID,98.9079,VALID,0,VALID,20.2453,VALID,315,VALID,0,
2005-12-21, 00:35:00,VALID,916.929,VALID,0,VALID,98.9003,VALID,0,VALID,20.2425,VALID,228,VALID,0.108631,
2005-12-21, 00:36:00,VALID,916.941,VALID,0,VALID,98.8342,VALID,0,VALID,20.2089,VALID,190,VALID,0.593932,
2005-12-21, 00:37:00,VALID,916.948,VALID,0,VALID,98.8927,VALID,0,VALID,20.2003,VALID,185,VALID,0.562128,
2005-12-21, 00:38:00,VALID,916.953,VALID,0,VALID,98.9486,VALID,0,VALID,20.1838,VALID,184,VALID,0.572266,
2005-12-21, 00:39:00,VALID,916.964,VALID,0,VALID,98.9614,VALID,0.0169808,VALID,20.1642,VALID,179,VALID,0.520389,
2005-12-21, 00:40:00,VALID,916.97,VALID,0,VALID,98.8304,VALID,0,VALID,20.148,VALID,179,VALID,0.478338,
2005-12-21, 00:41:00,VALID,917.015,VALID,0,VALID,98.6892,VALID,0,VALID,20.1224,VALID,179,VALID,0.381138,
2005-12-21, 00:42:00,VALID,917.05,VALID,0,VALID,98.6714,VALID,0,VALID,20.1197,VALID,179,VALID,0.372514,
2005-12-21, 00:43:00,VALID,917.069,VALID,0,VALID,98.6892,VALID,0,VALID,20.113,VALID,179,VALID,0.340732,
2005-12-21, 00:44:00,VALID,917.053,VALID,0,VALID,98.7121,VALID,0,VALID,20.1127,VALID,179,VALID,0.137074,
2005-12-21, 00:45:00,VALID,917.038,VALID,0,VALID,98.7541,VALID,-0.0339617,VALID,20.1092,VALID,179,VALID,0.207741,
2005-12-21, 00:46:00,VALID,917.062,VALID,0,VALID,98.8253,VALID,-0.0169808,VALID,20.1127,VALID,179,VALID,0.155869,
2005-12-21, 00:47:00,VALID,917.074,VALID,0,VALID,98.941,VALID,-0.0169808,VALID,20.1296,VALID,179,VALID,0.00381098,
2005-12-21, 00:48:00,VALID,917.07,VALID,0,VALID,98.8787,VALID,-0.0339617,VALID,20.1259,VALID,179,VALID,0,
2005-12-21, 00:49:00,VALID,917.038,VALID,0,VALID,98.6791,VALID,0,VALID,20.1125,VALID,179,VALID,0.00876524,
2005-12-21, 00:50:00,VALID,917.008,VALID,0,VALID,98.2874,VALID,0,VALID,20.0737,VALID,179,VALID,0.185082,
2005-12-21, 00:51:00,VALID,916.987,VALID,0,VALID,98.145,VALID,-0.0169808,VALID,20.0384,VALID,179,VALID,0.101376,
2005-12-21, 00:52:00,VALID,916.957,VALID,0,VALID,98.2556,VALID,0,VALID,20.0023,VALID,179,VALID,0,
2005-12-21, 00:53:00,VALID,916.939,VALID,0,VALID,98.3573,VALID,-0.0339617,VALID,20.0125,VALID,179,VALID,0,
2005-12-21, 00:54:00,VALID,916.928,VALID,0,VALID,98.6447,VALID,0,VALID,20.0157,VALID,179,VALID,0,
2005-12-21, 00:55:00,VALID,916.917,VALID,0,VALID,98.6969,VALID,0.0169808,VALID,20.0259,VALID,179,VALID,0,
2005-12-21, 00:56:00,VALID,916.908,VALID,0,VALID,98.6587,VALID,0,VALID,20.0192,VALID,179,VALID,0,
2005-12-21, 00:57:00,VALID,916.894,VALID,0,VALID,98.7096,VALID,0,VALID,20.0192,VALID,179,VALID,0,
2005-12-21, 00:58:00,VALID,916.889,VALID,0,VALID,98.6625,VALID,0,VALID,20.013,VALID,179,VALID,0,
2005-12-21, 00:59:00,VALID,916.901,VALID,0,VALID,98.5811,VALID,0,VALID,19.9966,VALID,179,VALID,0,
2005-12-21, 01:00:00,VALID,916.907,VALID,0,VALID,98.4108,VALID,0,VALID,19.9802,VALID,179,VALID,0,
2005-12-21, 01:01:00,VALID,916.908,VALID,0,VALID,98.3942,VALID,-0.0339617,VALID,19.9615,VALID,179,VALID,0,
2005-12-21, 01:02:00,VALID,916.888,VALID,0,VALID,98.3395,VALID,-0.0169808,VALID,19.9516,VALID,179,VALID,0,
2005-12-21, 01:03:00,VALID,916.899,VALID,0,VALID,98.3828,VALID,0,VALID,19.9352,VALID,63,VALID,0.660251,
2005-12-21, 01:04:00,VALID,916.88,VALID,0,VALID,98.7465,VALID,-0.0169808,VALID,19.9643,VALID,20,VALID,0.822311,
2005-12-21, 01:05:00,VALID,916.872,VALID,0,VALID,98.9283,VALID,-0.0339617,VALID,19.9871,VALID,15,VALID,0.908789,
2005-12-21, 01:06:00,VALID,916.866,VALID,0,VALID,98.8698,VALID,0,VALID,19.9839,VALID,13,VALID,0.920007,
2005-12-21, 01:07:00,VALID,916.847,VALID,0,VALID,99.0084,VALID,-0.0169808,VALID,19.9613,VALID,13,VALID,0.986281,
2005-12-21, 01:08:00,VALID,916.818,VALID,0,VALID,99.1457,VALID,0,VALID,19.9416,VALID,12,VALID,0.751488,
2005-12-21, 01:09:00,VALID,916.809,VALID,0,VALID,99.2691,VALID,0,VALID,19.929,VALID,11,VALID,0.627131,
2005-12-21, 01:10:00,VALID,916.784,VALID,0,VALID,99.2208,VALID,-0.0169808,VALID,19.919,VALID,11,VALID,0.686967,
2005-12-21, 01:11:00,VALID,916.761,VALID,0,VALID,99.1852,VALID,0,VALID,19.8867,VALID,14,VALID,0.818182,
2005-12-21, 01:12:00,VALID,916.752,VALID,0,VALID,99.2576,VALID,0,VALID,19.8775,VALID,13,VALID,0.872692,
2005-12-21, 01:13:00,VALID,916.757,VALID,0,VALID,99.3161,VALID,-0.0169808,VALID,19.8519,VALID,13,VALID,0.709302,
2005-12-21, 01:14:00,VALID,916.756,VALID,0,VALID,99.3861,VALID,0,VALID,19.826,VALID,13,VALID,0.857777,
2005-12-21, 01:15:00,VALID,916.745,VALID,0,VALID,99.4408,VALID,-0.0169808,VALID,19.7895,VALID,15,VALID,0.982013,
2005-12-21, 01:16:00,VALID,916.722,VALID,0,VALID,99.5616,VALID,0,VALID,19.7837,VALID,19,VALID,0.975391,
2005-12-21, 01:17:00,VALID,916.715,VALID,0,VALID,99.7396,VALID,0,VALID,19.774,VALID,22,VALID,1.08404,
2005-12-21, 01:18:00,VALID,916.724,VALID,0,VALID,99.9227,VALID,-0.0339617,VALID,19.7934,VALID,20,VALID,0.93125,
2005-12-21, 01:19:00,VALID,916.719,VALID,0,VALID,99.9481,VALID,-0.0339617,VALID,19.7638,VALID,23,VALID,0.55785,
2005-12-21, 01:20:00,VALID,916.718,VALID,0,VALID,99.9941,VALID,0,VALID,19.7646,VALID,22,VALID,0.529948,
2005-12-21, 01:21:00,VALID,916.695,VALID,0,VALID,100,VALID,-0.0339617,VALID,19.7549,VALID,32,VALID,0.640988,
2005-12-21, 01:22:00,VALID,916.685,VALID,0,VALID,99.969,VALID,0,VALID,19.7517,VALID,40,VALID,0.615039,
2005-12-21, 01:23:00,VALID,916.693,VALID,0,VALID,99.8502,VALID,0,VALID,19.7482,VALID,40,VALID,0.501367,
2005-12-21, 01:24:00,VALID,916.697,VALID,0,VALID,99.6798,VALID,-0.0169808,VALID,19.7417,VALID,40,VALID,0.473011,
2005-12-21, 01:25:00,VALID,916.694,VALID,0,VALID,99.6061,VALID,0,VALID,19.732,VALID,43,VALID,0.554878,
2005-12-21, 01:26:00,VALID,916.69,VALID,0,VALID,99.5679,VALID,-0.0339617,VALID,19.7154,VALID,63,VALID,0.699479,
2005-12-21, 01:27:00,VALID,916.684,VALID,0,VALID,99.4535,VALID,0,VALID,19.7091,VALID,72,VALID,0.633681,
2005-12-21, 01:28:00,VALID,916.682,VALID,0,VALID,99.3581,VALID,0,VALID,19.7253,VALID,75,VALID,0.636513,
2005-12-21, 01:29:00,VALID,916.684,VALID,0,VALID,99.1674,VALID,0,VALID,19.7089,VALID,77,VALID,0.560902,
2005-12-21, 01:30:00,VALID,916.686,VALID,0,VALID,98.9436,VALID,-0.0339617,VALID,19.7253,VALID,77,VALID,0.432958,
2005-12-21, 01:31:00,VALID,916.702,VALID,0,VALID,98.7693,VALID,0,VALID,19.7348,VALID,77,VALID,0.32512,
2005-12-21, 01:32:00,VALID,916.693,VALID,0,VALID,98.6409,VALID,0,VALID,19.7646,VALID,77,VALID,0.0046503,
2005-12-21, 01:33:00,VALID,916.687,VALID,0,VALID,98.5227,VALID,0,VALID,19.7638,VALID,77,VALID,0.232244,
2005-12-21, 01:34:00,VALID,916.688,VALID,0,VALID,98.44,VALID,-0.0169808,VALID,19.781,VALID,77,VALID,0.205273,
2005-12-21, 01:35:00,VALID,916.699,VALID,0,VALID,98.4934,VALID,0,VALID,19.7738,VALID,77,VALID,0.20653,
2005-12-21, 01:36:00,VALID,916.692,VALID,0,VALID,98.6549,VALID,-0.0339617,VALID,19.78,VALID,77,VALID,0.271621,
2005-12-21, 01:37:00,VALID,916.676,VALID,0,VALID,98.6587,VALID,-0.0169808,VALID,19.7997,VALID,109,VALID,0.47202,
2005-12-21, 01:38:00,VALID,916.649,VALID,0,VALID,98.6282,VALID,-0.0339617,VALID,19.7962,VALID,125,VALID,0.540153,
2005-12-21, 01:39:00,VALID,916.628,VALID,0,VALID,98.5595,VALID,0,VALID,19.8029,VALID,133,VALID,0.716704,
2005-12-21, 01:40:00,VALID,916.627,VALID,0,VALID,98.4222,VALID,0,VALID,19.7999,VALID,125,VALID,0.639266,
2005-12-21, 01:41:00,VALID,916.62,VALID,0,VALID,98.3383,VALID,-0.0169808,VALID,19.787,VALID,97,VALID,0.723292,
2005-12-21, 01:42:00,VALID,916.6,VALID,0,VALID,98.2442,VALID,-0.0339617,VALID,19.7611,VALID,98,VALID,0.885476,
2005-12-21, 01:43:00,VALID,916.592,VALID,0,VALID,98.5633,VALID,0,VALID,19.7318,VALID,127,VALID,0.760298,
2005-12-21, 01:44:00,VALID,916.575,VALID,0,VALID,99.0644,VALID,0,VALID,19.7221,VALID,131,VALID,0.528706,
2005-12-21, 01:45:00,VALID,916.569,VALID,0,VALID,99.2195,VALID,-0.0339617,VALID,19.7032,VALID,143,VALID,0.742914,
2005-12-21, 01:46:00,VALID,916.55,VALID,0,VALID,99.559,VALID,-0.0169808,VALID,19.6736,VALID,146,VALID,0.710156,
2005-12-21, 01:47:00,VALID,916.547,VALID,0,VALID,99.8286,VALID,-0.0339617,VALID,19.6843,VALID,160,VALID,0.515625,
2005-12-21, 01:48:00,VALID,916.545,VALID,0,VALID,99.9804,VALID,0,VALID,19.6781,VALID,153,VALID,0.581944,
2005-12-21, 01:49:00,VALID,916.536,VALID,0,VALID,100,VALID,0.0339617,VALID,19.6438,VALID,149,VALID,0.372337,
2005-12-21, 01:50:00,VALID,916.525,VALID,0,VALID,100,VALID,0.0509425,VALID,19.6467,VALID,149,VALID,0.309338,
2005-12-21, 01:51:00,VALID,916.51,VALID,0,VALID,100,VALID,0.0849042,VALID,19.64,VALID,142,VALID,0.303163,
2005-12-21, 01:52:00,VALID,916.502,VALID,0,VALID,100,VALID,0.0509425,VALID,19.6567,VALID,142,VALID,0.21234,
2005-12-21, 01:53:00,VALID,916.497,VALID,0,VALID,100,VALID,0.0339617,VALID,19.6303,VALID,142,VALID,0,
2005-12-21, 01:54:00,VALID,916.477,VALID,0,VALID,100,VALID,0.0679233,VALID,19.6338,VALID,142,VALID,0,
2005-12-21, 01:55:00,VALID,916.456,VALID,0,VALID,100,VALID,0.0849042,VALID,19.647,VALID,142,VALID,0,
2005-12-21, 01:56:00,VALID,916.444,VALID,0,VALID,100,VALID,0.0849042,VALID,19.6634,VALID,142,VALID,0,
2005-12-21, 01:57:00,VALID,916.432,VALID,0,VALID,100,VALID,0.0849042,VALID,19.6597,VALID,142,VALID,0,
2005-12-21, 01:58:00,VALID,916.414,VALID,0,VALID,100,VALID,0.0509425,VALID,19.6472,VALID,142,VALID,0.0513672,
2005-12-21, 01:59:00,VALID,916.4,VALID,0,VALID,100,VALID,0.101885,VALID,19.6373,VALID,142,VALID,0,
2005-12-21, 02:00:00,VALID,916.382,VALID,0,VALID,100,VALID,0.0849042,VALID,19.644,VALID,142,VALID,0,
2005-12-21, 02:01:00,VALID,916.382,VALID,0,VALID,100,VALID,0.0849042,VALID,19.647,VALID,142,VALID,0,
2005-12-21, 02:02:00,VALID,916.379,VALID,0,VALID,99.9321,VALID,0.0849042,VALID,19.6306,VALID,142,VALID,0.20332,
2005-12-21, 02:03:00,VALID,916.38,VALID,0,VALID,99.5437,VALID,0.0679233,VALID,19.6144,VALID,165,VALID,0.322852,
2005-12-21, 02:04:00,VALID,916.38,VALID,0,VALID,99.1394,VALID,0.0169808,VALID,19.6283,VALID,168,VALID,0.243459,
2005-12-21, 02:05:00,VALID,916.383,VALID,0,VALID,98.585,VALID,-0.0169808,VALID,19.6452,VALID,168,VALID,0.25799,
2005-12-21, 02:06:00,VALID,916.385,VALID,0,VALID,98.4769,VALID,-0.0339617,VALID,19.6845,VALID,168,VALID,0.308594,
2005-12-21, 02:07:00,VALID,916.369,VALID,0,VALID,98.6307,VALID,0,VALID,19.7198,VALID,168,VALID,0.179857,
2005-12-21, 02:08:00,VALID,916.387,VALID,0,VALID,98.585,VALID,-0.0169808,VALID,19.7427,VALID,168,VALID,0.183254,
2005-12-21, 02:09:00,VALID,916.414,VALID,0,VALID,98.5227,VALID,-0.0339617,VALID,19.739,VALID,168,VALID,0.251999,
2005-12-21, 02:10:00,VALID,916.441,VALID,0,VALID,98.4209,VALID,-0.0339617,VALID,19.7134,VALID,168,VALID,0.438368,
2005-12-21, 02:11:00,VALID,916.475,VALID,0,VALID,98.3052,VALID,-0.0679233,VALID,19.6975,VALID,169,VALID,0.563616,
2005-12-21, 02:12:00,VALID,916.489,VALID,0,VALID,98.2009,VALID,-0.0339617,VALID,19.6711,VALID,171,VALID,0.45141,
2005-12-21, 02:13:00,VALID,916.492,VALID,0,VALID,98.1641,VALID,0,VALID,19.6515,VALID,173,VALID,0.238636,
2005-12-21, 02:14:00,VALID,916.489,VALID,0,VALID,98.0102,VALID,-0.0339617,VALID,19.6649,VALID,173,VALID,0.111458,
2005-12-21, 02:15:00,VALID,916.467,VALID,0,VALID,97.6529,VALID,-0.101885,VALID,19.642,VALID,181,VALID,0.522693,
2005-12-21, 02:16:00,VALID,916.43,VALID,0,VALID,97.4278,VALID,-0.0339617,VALID,19.6191,VALID,177,VALID,0.683594,
2005-12-21, 02:17:00,VALID,916.395,VALID,0,VALID,97.5181,VALID,0,VALID,19.6231,VALID,165,VALID,0.560268,
2005-12-21, 02:18:00,VALID,916.367,VALID,0,VALID,97.8093,VALID,-0.0339617,VALID,19.6134,VALID,165,VALID,0.455929,
2005-12-21, 02:19:00,VALID,916.353,VALID,0,VALID,98.0089,VALID,-0.0169808,VALID,19.59,VALID,150,VALID,0.344322,
2005-12-21, 02:20:00,VALID,916.333,VALID,0,VALID,98.2416,VALID,-0.0169808,VALID,19.5679,VALID,115,VALID,0.440662,
2005-12-21, 02:21:00,VALID,916.318,VALID,0,VALID,98.3548,VALID,-0.0509425,VALID,19.5421,VALID,114,VALID,0.104802,
2005-12-21, 02:22:00,VALID,916.32,VALID,0,VALID,98.4464,VALID,-0.0339617,VALID,19.5067,VALID,106,VALID,0.244093,
2005-12-21, 02:23:00,VALID,916.298,VALID,0,VALID,98.5939,VALID,-0.0339617,VALID,19.4938,VALID,72,VALID,0.411523,
2005-12-21, 02:24:00,VALID,916.286,VALID,0,VALID,98.8329,VALID,-0.0509425,VALID,19.4677,VALID,62,VALID,0.424782,
2005-12-21, 02:25:00,VALID,916.292,VALID,0,VALID,99.0415,VALID,-0.0339617,VALID,19.4839,VALID,62,VALID,0.404797,
2005-12-21, 02:26:00,VALID,916.308,VALID,0,VALID,99.1559,VALID,-0.0169808,VALID,19.4873,VALID,62,VALID,0.0171494,
2005-12-21, 02:27:00,VALID,916.3,VALID,0,VALID,99.2627,VALID,-0.0339617,VALID,19.4834,VALID,62,VALID,0,
2005-12-21, 02:28:00,VALID,916.291,VALID,0,VALID,99.3695,VALID,0,VALID,19.4901,VALID,62,VALID,0,
2005-12-21, 02:29:00,VALID,916.315,VALID,0,VALID,99.5056,VALID,0,VALID,19.4993,VALID,62,VALID,0,
2005-12-21, 02:30:00,VALID,916.33,VALID,0,VALID,99.587,VALID,-0.0339617,VALID,19.5231,VALID,62,VALID,0,
2005-12-21, 02:31:00,VALID,916.328,VALID,0,VALID,99.5577,VALID,-0.0339617,VALID,19.5102,VALID,62,VALID,0,
2005-12-21, 02:32:00,VALID,916.322,VALID,0,VALID,99.5692,VALID,-0.0169808,VALID,19.503,VALID,62,VALID,0,
2005-12-21, 02:33:00,VALID,916.348,VALID,0,VALID,99.6213,VALID,0,VALID,19.5291,VALID,62,VALID,0,
2005-12-21, 02:34:00,VALID,916.356,VALID,0,VALID,99.7599,VALID,0,VALID,19.5841,VALID,332,VALID,0.173735,
2005-12-21, 02:35:00,VALID,916.338,VALID,0,VALID,99.7955,VALID,-0.0339617,VALID,19.6455,VALID,304,VALID,0.156977,
2005-12-21, 02:36:00,VALID,916.316,VALID,0,VALID,99.62,VALID,-0.0169808,VALID,19.6746,VALID,304,VALID,0.0498935,
2005-12-21, 02:37:00,VALID,916.289,VALID,0,VALID,99.4662,VALID,-0.0339617,VALID,19.6776,VALID,304,VALID,0.039253,
2005-12-21, 02:38:00,VALID,916.265,VALID,0,VALID,99.4458,VALID,-0.0169808,VALID,19.7106,VALID,223,VALID,0.14234,
2005-12-21, 02:39:00,VALID,916.233,VALID,0,VALID,99.4153,VALID,-0.0339617,VALID,19.7196,VALID,191,VALID,0.180753,
2005-12-21, 02:40:00,VALID,916.211,VALID,0,VALID,99.409,VALID,0,VALID,19.736,VALID,191,VALID,0.233356,
2005-12-21, 02:41:00,VALID,916.21,VALID,0,VALID,99.3543,VALID,-0.0509425,VALID,19.7328,VALID,191,VALID,0.0580357,
2005-12-21, 02:42:00,VALID,916.209,VALID,0,VALID,99.3543,VALID,-0.0169808,VALID,19.7358,VALID,191,VALID,0,
2005-12-21, 02:43:00,VALID,916.207,VALID,0,VALID,99.4229,VALID,0,VALID,19.7427,VALID,191,VALID,0,
2005-12-21, 02:44:00,VALID,916.194,VALID,0,VALID,99.4675,VALID,-0.0339617,VALID,19.7527,VALID,191,VALID,0,
2005-12-21, 02:45:00,VALID,916.202,VALID,0,VALID,99.4344,VALID,-0.0339617,VALID,19.7524,VALID,191,VALID,0,
2005-12-21, 02:46:00,VALID,916.203,VALID,0,VALID,99.3937,VALID,0,VALID,19.7648,VALID,191,VALID,0,
2005-12-21, 02:47:00,VALID,916.208,VALID,0,VALID,99.3009,VALID,-0.0339617,VALID,19.7683,VALID,191,VALID,0,
2005-12-21, 02:48:00,VALID,916.231,VALID,0,VALID,99.2093,VALID,-0.0339617,VALID,19.7678,VALID,191,VALID,0,
2005-12-21, 02:49:00,VALID,916.264,VALID,0,VALID,99.0491,VALID,0,VALID,19.7646,VALID,191,VALID,0,
2005-12-21, 02:50:00,VALID,916.268,VALID,0,VALID,98.9423,VALID,0,VALID,19.7556,VALID,191,VALID,0,
2005-12-21, 02:51:00,VALID,916.258,VALID,0,VALID,98.9741,VALID,-0.0169808,VALID,19.7457,VALID,191,VALID,0,
2005-12-21, 02:52:00,VALID,916.245,VALID,0,VALID,98.6167,VALID,0,VALID,19.7104,VALID,191,VALID,0,
2005-12-21, 02:53:00,VALID,916.247,VALID,0,VALID,98.1653,VALID,-0.0339617,VALID,19.6452,VALID,191,VALID,0,
2005-12-21, 02:54:00,VALID,916.236,VALID,0,VALID,97.6719,VALID,-0.0339617,VALID,19.5811,VALID,92,VALID,0.52524,
2005-12-21, 02:55:00,VALID,916.224,VALID,0,VALID,97.6198,VALID,-0.0339617,VALID,19.4873,VALID,51,VALID,0.857195,
2005-12-21, 02:56:00,VALID,916.223,VALID,0,VALID,98.3879,VALID,-0.0339617,VALID,19.4647,VALID,56,VALID,0.8879,
2005-12-21, 02:57:00,VALID,916.238,VALID,0,VALID,98.7096,VALID,0,VALID,19.4322,VALID,60,VALID,0.818892,
2005-12-21, 02:58:00,VALID,916.23,VALID,0,VALID,99.0872,VALID,0,VALID,19.3964,VALID,62,VALID,0.623183,
2005-12-21, 02:59:00,VALID,916.222,VALID,0,VALID,99.4026,VALID,0,VALID,19.3742,VALID,80,VALID,0.662574,
2005-12-21, 03:00:00,VALID,916.209,VALID,0,VALID,99.6696,VALID,0,VALID,19.3578,VALID,85,VALID,0.802912,
2005-12-21, 03:01:00,VALID,916.2,VALID,0,VALID,99.8604,VALID,-0.0169808,VALID,19.3387,VALID,91,VALID,0.730741,
2005-12-21, 03:02:00,VALID,916.206,VALID,0,VALID,99.8909,VALID,0,VALID,19.3096,VALID,102,VALID,0.661701,
2005-12-21, 03:03:00,VALID,916.207,VALID,0,VALID,99.984,VALID,0,VALID,19.2805,VALID,102,VALID,0.600675,
2005-12-21, 03:04:00,VALID,916.196,VALID,0,VALID,99.9977,VALID,0.0509425,VALID,19.2532,VALID,102,VALID,0.291109,
2005-12-21, 03:05:00,VALID,916.21,VALID,0,VALID,99.9644,VALID,0.101885,VALID,19.237,VALID,102,VALID,0.143029,
2005-12-21, 03:06:00,VALID,916.215,VALID,0,VALID,100,VALID,0.101885,VALID,19.2566,VALID,102,VALID,0.216388,
2005-12-21, 03:07:00,VALID,916.242,VALID,0,VALID,100,VALID,0.101885,VALID,19.2564,VALID,102,VALID,0.147104,
2005-12-21, 03:08:00,VALID,916.266,VALID,0,VALID,100,VALID,0.101885,VALID,19.2566,VALID,102,VALID,0.292039,
2005-12-21, 03:09:00,VALID,916.274,VALID,0,VALID,100,VALID,0.0849042,VALID,19.2795,VALID,102,VALID,0.245276,
2005-12-21, 03:10:00,VALID,916.281,VALID,0,VALID,100,VALID,0.0849042,VALID,19.286,VALID,102,VALID,0.39444,
2005-12-21, 03:11:00,VALID,916.276,VALID,0,VALID,100,VALID,0.0849042,VALID,19.3116,VALID,102,VALID,0.415451,
2005-12-21, 03:12:00,VALID,916.254,VALID,0,VALID,100,VALID,0.0849042,VALID,19.2949,VALID,102,VALID,0.72141,
2005-12-21, 03:13:00,VALID,916.232,VALID,0,VALID,100,VALID,0.0849042,VALID,19.2954,VALID,101,VALID,0.756641,
2005-12-21, 03:14:00,VALID,916.205,VALID,0,VALID,100,VALID,0.0679233,VALID,19.2728,VALID,94,VALID,0.845881,
2005-12-21, 03:15:00,VALID,916.191,VALID,0,VALID,100,VALID,0.0849042,VALID,19.2571,VALID,93,VALID,0.737772,
2005-12-21, 03:16:00,VALID,916.178,VALID,0,VALID,100,VALID,0.0679233,VALID,19.2402,VALID,93,VALID,0.599888,
2005-12-21, 03:17:00,VALID,916.155,VALID,0,VALID,100,VALID,0.101885,VALID,19.2375,VALID,93,VALID,0.425595,
2005-12-21, 03:18:00,VALID,916.142,VALID,0,VALID,100,VALID,0.101885,VALID,19.1821,VALID,93,VALID,0.28452,
2005-12-21, 03:19:00,VALID,916.125,VALID,0,VALID,99.9018,VALID,0.101885,VALID,19.1209,VALID,93,VALID,0.0448289,
2005-12-21, 03:20:00,VALID,916.092,VALID,0,VALID,99.7854,VALID,0.101885,VALID,19.0786,VALID,93,VALID,0.0130814,
2005-12-21, 03:21:00,VALID,916.093,VALID,0,VALID,99.9517,VALID,0.0679233,VALID,19.0791,VALID,93,VALID,0,
2005-12-21, 03:22:00,VALID,916.095,VALID,0,VALID,100,VALID,0.101885,VALID,19.0854,VALID,93,VALID,0,
2005-12-21, 03:23:00,VALID,916.115,VALID,0,VALID,100,VALID,0.101885,VALID,19.1179,VALID,93,VALID,0,
2005-12-21, 03:24:00,VALID,916.121,VALID,0,VALID,100,VALID,0.0849042,VALID,19.1565,VALID,93,VALID,0,
2005-12-21, 03:25:00,VALID,916.132,VALID,0,VALID,100,VALID,0.101885,VALID,19.2047,VALID,93,VALID,0,
2005-12-21, 03:26:00,VALID,916.142,VALID,0,VALID,100,VALID,0.0849042,VALID,19.2144,VALID,93,VALID,0,
2005-12-21, 03:27:00,VALID,916.158,VALID,0,VALID,99.9082,VALID,0.0509425,VALID,19.189,VALID,93,VALID,0,
2005-12-21, 03:28:00,VALID,916.183,VALID,0,VALID,99.3797,VALID,0.101885,VALID,19.1244,VALID,93,VALID,0,
2005-12-21, 03:29:00,VALID,916.21,VALID,0,VALID,98.9588,VALID,0.101885,VALID,19.0366,VALID,84,VALID,0.0813954,
2005-12-21, 03:30:00,VALID,916.236,VALID,0,VALID,99.4776,VALID,0.101885,VALID,19.06,VALID,299,VALID,0.2875,
2005-12-21, 03:31:00,VALID,916.25,VALID,0,VALID,99.9748,VALID,0.0849042,VALID,19.1343,VALID,299,VALID,0.0420387,
2005-12-21, 03:32:00,VALID,916.248,VALID,0,VALID,100,VALID,0.0849042,VALID,19.1627,VALID,299,VALID,0,
2005-12-21, 03:33:00,VALID,916.239,VALID,0,VALID,100,VALID,0.0849042,VALID,19.1791,VALID,299,VALID,0,
2005-12-21, 03:34:00,VALID,916.23,VALID,0,VALID,100,VALID,0.101885,VALID,19.1788,VALID,299,VALID,0,
2005-12-21, 03:35:00,VALID,916.205,VALID,0,VALID,100,VALID,0.0849042,VALID,19.1883,VALID,299,VALID,0,
2005-12-21, 03:36:00,VALID,916.207,VALID,0,VALID,100,VALID,0.0679233,VALID,19.1982,VALID,299,VALID,0,
2005-12-21, 03:37:00,VALID,916.21,VALID,0,VALID,100,VALID,0.101885,VALID,19.2248,VALID,299,VALID,0,
2005-12-21, 03:38:00,VALID,916.214,VALID,0,VALID,100,VALID,0.101885,VALID,19.2437,VALID,299,VALID,0,
2005-12-21, 03:39:00,VALID,916.206,VALID,0,VALID,100,VALID,0.0849042,VALID,19.2728,VALID,299,VALID,0.0790128,
2005-12-21, 03:40:00,VALID,916.213,VALID,0,VALID,100,VALID,0.0849042,VALID,19.3021,VALID,299,VALID,0.0591518,
2005-12-21, 03:41:00,VALID,916.22,VALID,0,VALID,100,VALID,0.0849042,VALID,19.3409,VALID,299,VALID,0,
2005-12-21, 03:42:00,VALID,916.214,VALID,0,VALID,100,VALID,0.0849042,VALID,19.3698,VALID,299,VALID,0,
2005-12-21, 03:43:00,VALID,916.214,VALID,0,VALID,100,VALID,0.0509425,VALID,19.3991,VALID,299,VALID,0,
2005-12-21, 03:44:00,VALID,916.221,VALID,0,VALID,100,VALID,0.0849042,VALID,19.3896,VALID,299,VALID,0,